Home   Weather   Anacortes   Past weeks
Flag for USA

Past Weather in Anacortes, Washington, USA — Yesterday and Last 2 Weeks

Now
60 °F

Overcast.


Feels Like: 60 °F
Forecast: 61 / 56 °F
Wind: 18 mph from Southeast

Location: Whidbey Island

Current Time: Oct 16, 2019 at 2:48:19 am

Latest Report: Oct 16, 2019 at 1:56 am


Visibility: 10 mi

Pressure: 29.81 "Hg

Humidity: 56%

Dew Point: 44 °F

Location of AnacortesLocation

Past Weather in Anacortes — Graph

°F

Anacortes Temperature Yesterday

Maximum temperature yesterday: 62 °F (at 4:56 pm)
Minimum temperature yesterday: 43 °F (at 12:15 am)
Average temperature yesterday: 54 °F

High & Low Weather Summary for the Past Weeks

 TemperatureHumidityPressure
High65 °F (Oct 3, 1:56 pm)97% (Oct 15, 12:15 am)30.52 "Hg (Oct 15, 12:15 am)
Low33 °F (Oct 10, 6:56 am)30% (Oct 9, 2:56 pm)29.84 "Hg (Oct 16, 12:56 am)
Average52 °F71%30.15 "Hg
* Reported Oct 1 12:56 am — Oct 16 12:56 am, Anacortes. Weather by CustomWeather, © 2019

Note: Actual official high and low records may vary slightly from our data, if they occured in-between our weather recording intervals... More about our weather records

Advertising

Anacortes Weather History for the Previous 24 Hours

Scroll right to see more
 ConditionsComfort  
Time TempWeatherWind HumidityBarometerVisibility
12:56 am
Wed, Oct 16
60 °FOvercast.24 mph58%29.84 "Hg10 mi
11:56 pm
Tue, Oct 15
59 °FOvercast.22 mph64%29.85 "Hg10 mi
10:56 pm59 °FLight rain. Overcast.17 mph64%29.89 "Hg10 mi
9:56 pm60 °FOvercast.17 mph58%29.90 "Hg10 mi
8:56 pm61 °FOvercast.13 mph54%29.91 "Hg10 mi
7:56 pm61 °FOvercast.17 mph52%29.90 "Hg10 mi
6:56 pm61 °FPartly cloudy.22 mph52%29.90 "Hg10 mi
5:56 pm62 °FBroken clouds.24 mph50%29.91 "Hg10 mi
4:56 pm62 °FCloudy.16 mph50%29.93 "Hg10 mi
3:56 pm61 °FCloudy.17 mph56%29.94 "Hg10 mi
2:56 pm58 °FMostly cloudy.15 mph65%29.96 "Hg7 mi
1:56 pm54 °FLight rain. Mostly cloudy.12 mph77%30.01 "Hg7 mi
1:03 pm53 °FMore clouds than sun.No wind80%30.01 "Hg7 mi
11:56 am53 °FCloudy.7 mph80%30.01 "Hg10 mi
10:56 am54 °FCloudy.3 mph74%30.00 "Hg10 mi
9:56 am52 °FCloudy.5 mph77%29.98 "Hg10 mi
8:56 am52 °FMostly cloudy.3 mph75%29.96 "Hg10 mi
7:56 am51 °FMostly cloudy.9 mph74%29.96 "Hg10 mi
6:56 am48 °FMostly cloudy.5 mph83%29.97 "Hg9 mi
5:56 am47 °FFog.5 mph90%29.97 "Hg6 mi
4:56 am46 °FFog.3 mph86%30.00 "Hg7 mi
3:56 am49 °FFog.No wind84%30.01 "Hg4 mi
2:56 am48 °FFog.6 mph83%30.02 "Hg4 mi
Weather by CustomWeather, © 2019

See weather overview